Вернуться в каталог

STARLINK-35742

АктивенСвязьVLEO
NORAD 66276·PAYLOAD·🇺🇸 United States

Запущен Oct 31, 2025 с Vandenberg Space Force Base

Loading…

Ближайшие Пролёты (ближайшие 24 часа)

TLE

СвежийSource: CelesTrak SupGP

Эпоха: Sep 15, 2026, 03:25 UTC

1 66276C 25247M   26258.14284722  .00033770  00000+0  99776-3 0  2588
2 66276  53.1587  28.8640 0001104  92.2519   2.9287 15.34373571    18

Отслеживайте STARLINK-35742 в реальном времени с AllMySat

Download on the App Store